When you browse on this site, cookies collect data to enhance your experience and personalize the content and advertising you see.
Visit our Privacy Policy to learn more. By continuing to use the site, you agree to this use of cookies and data.
  • In Hungary
  • List of Countries
  • For 7 days
  • Water Temperature
  • Satellite Maps
  • Weather Map
  • News
  • Weather Widgets
  • user-avatar
    Login

    Hourly Weather Giumri

    Today, 11 December, Tuesday

    Time Temperature Precipitation Wind Pressure Humidity
    00:00 -1°C° 0.1 mm 3 mps 631 mmHg 87%
    01:00 -1°C° 0 mm 3 mps 631 mmHg 87%
    02:00 -1°C° 0 mm 3 mps 631 mmHg 87%
    03:00 -1°C° 0 mm 2 mps 630 mmHg 88%
    04:00 -1°C° 0 mm 3 mps 630 mmHg 88%
    05:00 -1°C° 0 mm 3 mps 630 mmHg 88%
    06:00 -1°C° 0 mm 3 mps 630 mmHg 88%
    07:00 0°C° 0 mm 3 mps 630 mmHg 86%
    08:00 +1°C° 0 mm 3 mps 630 mmHg 85%
    09:00 +1°C° 0 mm 3 mps 630 mmHg 82%
    10:00 +1°C° 0.1 mm 4 mps 630 mmHg 80%
    11:00 +3°C° 0.1 mm 4 mps 629 mmHg 78%
    12:00 +3°C° 0.1 mm 5 mps 629 mmHg 76%
    13:00 +3°C° 0.2 mm 5 mps 629 mmHg 76%
    14:00 +3°C° 0.2 mm 5 mps 629 mmHg 76%
    15:00 +4°C° 0.2 mm 4 mps 629 mmHg 76%
    16:00 +3°C° 0.1 mm 4 mps 629 mmHg 78%
    17:00 +1°C° 0.1 mm 4 mps 629 mmHg 80%
    18:00 +1°C° 0.1 mm 4 mps 629 mmHg 82%
    19:00 +1°C° 0.3 mm 4 mps 629 mmHg 83%
    20:00 0°C° 0.3 mm 4 mps 629 mmHg 83%
    21:00 0°C° 0.3 mm 4 mps 629 mmHg 84%
    22:00 0°C° 0.6 mm 4 mps 629 mmHg 86%
    23:00 +1°C° 0.6 mm 4 mps 629 mmHg 87%

    Tomorrow, 12 December, Wednesday

    Time Temperature Precipitation Wind Pressure Humidity
    00:00 +1°C° 0.6 mm 4 mps 630 mmHg 88%
    01:00 0°C° 0.2 mm 4 mps 630 mmHg 89%
    02:00 +1°C° 0.2 mm 3 mps 630 mmHg 90%
    03:00 +1°C° 0.2 mm 2 mps 630 mmHg 91%
    04:00 +2°C° 0.5 mm 2 mps 629 mmHg 91%
    05:00 +1°C° 0.5 mm 3 mps 629 mmHg 92%
    06:00 +1°C° 0.5 mm 3 mps 629 mmHg 92%
    07:00 0°C° 0.5 mm 4 mps 628 mmHg 91%
    08:00 0°C° 0.5 mm 4 mps 628 mmHg 90%
    09:00 0°C° 0.5 mm 5 mps 627 mmHg 90%
    10:00 +1°C° 1.4 mm 5 mps 627 mmHg 89%
    11:00 +1°C° 1.4 mm 6 mps 627 mmHg 87%
    12:00 +1°C° 1.4 mm 6 mps 626 mmHg 86%
    13:00 +1°C° 1.3 mm 6 mps 626 mmHg 87%
    14:00 +1°C° 1.3 mm 5 mps 626 mmHg 88%
    15:00 +1°C° 1.3 mm 4 mps 626 mmHg 90%
    16:00 +1°C° 0.8 mm 5 mps 626 mmHg 90%
    17:00 +1°C° 0.8 mm 5 mps 626 mmHg 91%
    18:00 +1°C° 0.8 mm 5 mps 627 mmHg 92%
    19:00 +1°C° 1 mm 4 mps 627 mmHg 92%
    20:00 +1°C° 1 mm 4 mps 627 mmHg 93%
    21:00 +1°C° 1 mm 4 mps 627 mmHg 93%
    22:00 +1°C° 0.8 mm 4 mps 627 mmHg 94%
    23:00 +1°C° 0.8 mm 3 mps 627 mmHg 94%

    Day after tomorrow, 13 December, Thursday

    Time Temperature Precipitation Wind Pressure Humidity
    00:00 +1°C° 0.8 mm 3 mps 627 mmHg 95%
    01:00 +1°C° 0.4 mm 3 mps 627 mmHg 94%
    02:00 0°C° 0.4 mm 4 mps 627 mmHg 94%
    03:00 0°C° 0.4 mm 4 mps 627 mmHg 94%
    04:00 -1°C° 0.1 mm 4 mps 627 mmHg 94%
    05:00 -1°C° 0.1 mm 4 mps 627 mmHg 94%
    06:00 -1°C° 0.1 mm 3 mps 627 mmHg 93%
    07:00 -1°C° 0.2 mm 3 mps 628 mmHg 92%
    08:00 -1°C° 0.2 mm 3 mps 629 mmHg 91%
    09:00 -1°C° 0.2 mm 3 mps 629 mmHg 90%
    10:00 0°C° 0.2 mm 3 mps 629 mmHg 88%
    11:00 -1°C° 0.2 mm 4 mps 630 mmHg 86%
    12:00 0°C° 0.2 mm 4 mps 630 mmHg 84%
    13:00 0°C° 0.1 mm 4 mps 630 mmHg 83%
    14:00 -1°C° 0.1 mm 4 mps 631 mmHg 81%
    15:00 -1°C° 0.1 mm 4 mps 631 mmHg 79%
    16:00 -2°C° 0 mm 3 mps 631 mmHg 81%
    17:00 -3°C° 0 mm 2 mps 631 mmHg 83%
    18:00 -5°C° 0 mm 2 mps 632 mmHg 85%
    19:00 -5°C° 0 mm 2 mps 632 mmHg 85%
    20:00 -6°C° 0 mm 2 mps 632 mmHg 85%
    21:00 -6°C° 0 mm 2 mps 633 mmHg 85%
    22:00 -7°C° 0 mm 2 mps 633 mmHg 85%
    23:00 -7°C° 0 mm 2 mps 633 mmHg 85%

    14 December, Friday

    Time Temperature Precipitation Wind Pressure Humidity
    00:00 -7°C° 0 mm 2 mps 633 mmHg 85%
    01:00 -8°C° 0 mm 2 mps 633 mmHg 84%
    02:00 -8°C° 0 mm 2 mps 634 mmHg 84%
    03:00 -8°C° 0 mm 2 mps 634 mmHg 83%
    04:00 -7°C° 0 mm 1 mps 634 mmHg 83%
    05:00 -7°C° 0 mm 1 mps 634 mmHg 82%
    06:00 -7°C° 0 mm 1 mps 634 mmHg 82%
    07:00 -6°C° 0 mm 1 mps 634 mmHg 81%
    08:00 -6°C° 0 mm 1 mps 634 mmHg 81%
    09:00 -4°C° 0 mm 1 mps 635 mmHg 81%
    10:00 -3°C° 0 mm 1 mps 634 mmHg 80%
    11:00 -3°C° 0 mm 2 mps 634 mmHg 80%
    12:00 -2°C° 0 mm 2 mps 634 mmHg 79%
    13:00 -2°C° 0.3 mm 2 mps 634 mmHg 82%
    14:00 -2°C° 0.3 mm 2 mps 634 mmHg 84%
    15:00 -2°C° 0.3 mm 2 mps 633 mmHg 86%
    16:00 -2°C° 0.4 mm 2 mps 634 mmHg 87%
    17:00 -3°C° 0.4 mm 2 mps 634 mmHg 89%
    18:00 -3°C° 0.4 mm 2 mps 634 mmHg 90%
    19:00 -1°C° 0.3 mm 1 mps 634 mmHg 90%
    20:00 -1°C° 0.3 mm 1 mps 634 mmHg 90%
    21:00 -1°C° 0.3 mm 1 mps 635 mmHg 90%
    22:00 -1°C° 0.3 mm 1 mps 635 mmHg 90%
    23:00 -1°C° 0.3 mm 1 mps 635 mmHg 90%

    15 December, Saturday

    Time Temperature Precipitation Wind Pressure Humidity
    00:00 -1°C° 0.3 mm 1 mps 635 mmHg 90%
    01:00 -1°C° 0.2 mm 1 mps 635 mmHg 90%
    02:00 -2°C° 0.2 mm 1 mps 635 mmHg 90%
    03:00 -2°C° 0.2 mm 1 mps 635 mmHg 90%
    04:00 -2°C° 0.1 mm 1 mps 636 mmHg 89%
    05:00 -3°C° 0.1 mm 1 mps 636 mmHg 89%
    06:00 -3°C° 0.1 mm 1 mps 636 mmHg 88%
    07:00 -3°C° 0.1 mm 1 mps 636 mmHg 88%
    08:00 -3°C° 0.1 mm 1 mps 636 mmHg 87%
    09:00 -3°C° 0.1 mm 1 mps 636 mmHg 86%
    10:00 -2°C° 0 mm 1 mps 637 mmHg 84%
    11:00 -1°C° 0 mm 1 mps 637 mmHg 83%
    12:00 0°C° 0 mm 1 mps 637 mmHg 81%
    13:00 0°C° 0 mm 1 mps 637 mmHg 82%
    14:00 0°C° 0 mm 1 mps 636 mmHg 82%
    15:00 0°C° 0 mm 1 mps 636 mmHg 82%
    16:00 -1°C° 0 mm 1 mps 636 mmHg 83%
    17:00 -3°C° 0 mm 1 mps 636 mmHg 84%
    18:00 -4°C° 0 mm 1 mps 636 mmHg 85%
    19:00 -4°C° 0 mm 1 mps 636 mmHg 83%
    20:00 -4°C° 0 mm 1 mps 637 mmHg 82%
    21:00 -6°C° 0 mm 1 mps 637 mmHg 80%
    22:00 -4°C° 0 mm 1 mps 637 mmHg 79%
    23:00 -4°C° 0 mm 1 mps 637 mmHg 77%

    16 December, Sunday

    Time Temperature Precipitation Wind Pressure Humidity
    00:00 -4°C° 0 mm 1 mps 637 mmHg 76%
    01:00 -4°C° 0 mm 1 mps 636 mmHg 75%
    02:00 -4°C° 0 mm 1 mps 636 mmHg 74%
    03:00 -4°C° 0 mm 1 mps 636 mmHg 73%
    04:00 -4°C° 0 mm 1 mps 636 mmHg 73%
    05:00 -4°C° 0 mm 1 mps 636 mmHg 73%
    06:00 -3°C° 0 mm 1 mps 636 mmHg 72%
    07:00 -3°C° 0 mm 1 mps 636 mmHg 72%
    08:00 -2°C° 0 mm 1 mps 636 mmHg 72%
    09:00 -2°C° 0 mm 1 mps 637 mmHg 72%
    10:00 0°C° 0 mm 1 mps 637 mmHg 72%
    11:00 +1°C° 0 mm 1 mps 637 mmHg 72%
    12:00 +2°C° 0 mm 1 mps 637 mmHg 72%
    13:00 +2°C° 0 mm 1 mps 636 mmHg 72%
    14:00 +2°C° 0 mm 1 mps 636 mmHg 72%
    15:00 +2°C° 0 mm 1 mps 636 mmHg 73%
    16:00 +1°C° 0 mm 1 mps 636 mmHg 74%
    17:00 0°C° 0 mm 1 mps 636 mmHg 74%
    18:00 -1°C° 0 mm 1 mps 636 mmHg 75%
    19:00 -1°C° 0 mm 1 mps 636 mmHg 76%
    20:00 -1°C° 0 mm 1 mps 636 mmHg 76%
    21:00 -1°C° 0 mm 1 mps 636 mmHg 77%
    22:00 -2°C° 0 mm 1 mps 636 mmHg 78%
    23:00 -2°C° 0 mm 1 mps 636 mmHg 78%
    Show more